Regional Weather Roundup
Issued by NWS Midland/Odessa, TX

Skip options and go directly to product.
Home | Oldest Version | Previous Version | Current Version | All | Text Only | Save Text | Print | Product List | Glossary Off

Skip product version selection by date and time.   

895
ASUS44 KMAF 251110
RWRMAF
MIDLAND AREA WEATHER ROUNDUP
NATIONAL WEATHER SERVICE MIDLAND TX
600 AM CDT MON JUL 25 2016

...IN SOUTHWEST TEXAS AND SOUTHEAST NEW MEXICO...

CITY           SKY/WX    TMP DP  RH WIND       PRES   REMARKS
ALPINE         CLEAR     71  57  61 CALM      30.17S
ANDREWS        FAIR      76  58  53 CALM      30.07R
ARTESIA        CLEAR     73  55  53 N9        30.09S
BIG SPRING     CLEAR     81  63  54 SE8       30.05R
CARLSBAD       CLEAR     75  52  44 NW3       30.05S
DRYDEN           N/A     80  70  71 E8        29.97S
FORT STOCKTON  CLEAR     78  64  61 S12       30.02S
GUAD PASS      CLEAR     74  53  48 NE14      30.21S
HOBBS          CLEAR     73  54  49 CALM      30.11R
MARFA          CLEAR     66  56  70 N3        30.16S
MIDLAND AIRPK  CLEAR     81  59  47 S7        30.04R
MIDLAND INTL   CLEAR     78  59  51 SE6       30.03S
ODESSA         CLEAR     81  59  47 S7        30.05R
PECOS          CLEAR     77  59  53 NE6       30.00R
PRESIDIO       PTSUNNY   85  60  42 NE10      29.98R
SEMINOLE       CLEAR     74  58  57 CALM      30.09R
SNYDER           N/A     76  63  64 S3        30.04R
WINK           CLEAR     79  59  50 SE8       30.01R
$$
...OTHER STATIONS IN TEXAS...

CITY           SKY/WX    TMP DP  RH WIND       PRES   REMARKS
ABILENE        CLEAR     77  66  68 SE6       30.00R
AMARILLO       PTCLDY    70  63  78 NE7       30.13R
AUSTIN         MOCLDY    78  75  90 CALM      29.95R
BROWNSVILLE    CLEAR     79  76  90 SE6       29.90S
CORPUS CHRISTI PTCLDY    77  75  93 SE6       29.90S
DALLAS FTW     PTCLDY    81  72  74 SE7       29.95R
DEL RIO        CLEAR     81  70  69 E8        29.92S
EL PASO        MOCLDY    83  53  35 N10       30.05S
HOUSTON INT    PTCLDY    79  75  87 CALM      29.94R
LUBBOCK        PTCLDY    74  60  61 SE3       30.08R
SAN ANGELO     CLEAR     77  63  61 CALM      29.99R
SAN ANTONIO    PTCLDY    79  74  84 VRB5      29.96R
WACO           PTCLDY    81  72  74 S8        29.95R
WICHITA FALLS  NOT AVBL
$$
...OTHER LOCATIONS IN NEW MEXICO...

CITY           SKY/WX    TMP DP  RH WIND       PRES   REMARKS
ALAMAGORDO     CLEAR     72  55  56 CALM      30.11S
ALBUQUERQUE    CLOUDY    69  57  65 E6        30.24R
CANNON AFB     CLEAR     69  59  70 NE14      30.17R
CLOVIS         CLEAR     66  55  68 N9        30.17R
HOLLOMAN AFB   CLEAR     73  52  47 NW7       30.09R
ROSWELL        CLEAR     76  54  46 N8        30.10R
RUIDOSO          N/A     61  48  63 SW6       30.36S
SANTA FE       CLOUDY    66  51  58 N6        30.31R
TRUTH OR CONSE FAIR      77  52  41 N5        30.16S
TUCUMCARI      CLEAR     68  59  73 N6        30.16S
$$

USA.gov is the U.S. government's official web portal to all federal, state and local government web resources and services.